Location: Cartignies
(50.0929°N, 3.8447°E)
Time: 14:01:49
(UTC+00:00)

Dummy Sat-01 - Pass Details

Date: 12 January 2026
Orbit: 476 x 491 km, 86.3° (Epoch: 15 February)

Event Time Altitude Azimuth Distance (km) Brightness Sun altitude
Rises 17:32:18 0° 358° (N) 2,570 8.1 -13.2°
Reaches altitude 10° 17:34:26 10° 2° (N) 1,681 7.1 -13.5°
Maximum altitude 17:38:04 64° 85° (E) 540 4.5 -14.1°
Drops below altitude 10° 17:41:39 10° 167° (SSE) 1,657 7.3 -14.6°
Sets 17:43:44 0° 170° (S) 2,528 8.3 -14.9°
